[[{"header":{"parameterUnit":"m.s-1","parameterCategory":1,"la1":30.2991,"la2":30.254,"lo1":-89.0895,"lo2":-89.0444,"dy":0.0017,"dx":0.0017,"nx":28,"ny":28,"refTime":"2023-09-20T03:00:00:Z","depth":0,"parameterNumber":2,"parameterNumberName":"U-component_of_WINDS"},"data":[0,0,0,0,0,0,0,0,0,0,0,0,0,0,0,0,0,0,0,0,0,0,0,0,0,0,0,0,0,0,0,0,0,0,0,0,0,0,0,0,0,0,0,0,0,0,0,0,0,0,0,0,0,0,0,0,0,0,-4.2746,-4.2747,0,-4.2874,-4.2875,-4.2877,-4.2807,-4.2804,-4.28,-4.2797,-4.2927,-4.2933,-4.294,0,0,0,0,0,0,0,0,0,0,0,0,0,-4.2439,-4.2445,-4.2745,-4.2747,-4.2749,-4.2874,-4.2875,-4.2877,-4.2808,-4.2804,-4.2799,-4.2796,-4.2925,-4.2932,-4.294,0,0,0,0,0,0,0,0,0,0,0,0,0,-4.257,-4.2447,-4.2745,-4.2729,-4.2729,-4.2873,-4.2875,-4.2877,-4.2809,-4.2804,-4.2798,-4.2794,-4.2922,-4.2932,-4.2942,-4.3108,0,0,-4.2972,-4.2977,0,0,0,0,0,0,0,0,-4.2563,-4.2582,-4.273,-4.2731,-4.2731,-4.2819,-4.2815,-4.2955,-4.281,-4.2779,-4.2797,-4.2791,-4.2895,-4.2907,-4.2942,-4.3114,-4.312,-4.2973,-4.2979,-4.2984,-4.2986,0,0,0,0,0,0,0,-4.2554,-4.2576,-4.2796,-4.2732,-4.2733,-4.2715,-4.2728,-4.2841,-4.2864,-4.2781,-4.2776,-4.2792,-4.2894,-4.2933,-4.2945,-4.3121,-4.2973,-4.2982,-4.2988,-4.2992,-4.3434,-4.344,0,0,0,0,0,0,-4.2546,-4.2569,-4.2792,-4.28,-4.2632,-4.2725,-4.2739,-4.2796,-4.2863,-4.2868,-4.2797,-4.2789,-4.2918,-4.2933,-4.2949,-4.3146,-4.2983,-4.2993,-4.2999,-4.3429,-4.3436,-4.3442,0,0,0,0,0,0,-4.254,-4.2567,-4.2787,-4.2683,-4.271,-4.2736,-4.28,-4.2801,-4.284,-4.2875,-4.2879,-4.2832,-4.2915,-4.2935,-4.3069,-4.315,-4.2997,-4.3007,-4.3422,-4.3431,-4.3439,-4.3543,0,0,0,0,0,0,-4.2531,-4.2565,-4.2628,-4.2685,-4.2716,-4.2905,-4.2805,-4.2808,-4.2858,-4.2848,-4.2909,-4.2914,-4.2912,-4.3054,-4.3079,-4.3161,-4.3014,-4.3415,-4.3426,-4.3436,-4.3532,-4.3554,-4.3573,0,0,0,0,0,-4.2521,-4.2653,-4.2632,-4.2659,-4.2796,-4.291,-4.2927,-4.2923,-4.2865,-4.2928,-4.2951,-4.2912,-4.3138,-4.3068,-4.3095,-4.3182,-4.3409,-4.3423,-4.3435,-4.3523,-4.355,-4.3572,0,0,0,0,0,0,-4.2604,-4.266,-4.2637,-4.2792,-4.2847,-4.2898,-4.2978,-4.2951,-4.3023,-4.3011,-4.3003,-4.3017,-4.3155,-4.3183,-4.3104,-4.3346,-4.3264,-4.3283,-4.3322,-4.3348,-4.3368,-4.3356,-4.3023,0,0,0,0,0,-4.2641,-4.2729,-4.2773,-4.2905,-4.2934,-4.2952,-4.3001,-4.2993,-4.3049,-4.3072,-4.3104,-4.3159,-4.3242,-4.3297,-4.3376,-4.3537,-4.3548,-4.361,-4.363,-4.3647,-4.3662,-4.3747,-4.3775,-4.3484,-4.3484,-4.3484,0,0,-4.2717,-4.2758,-4.2814,-4.2923,-4.2964,-4.3055,-4.2971,-4.3071,-4.3138,-4.3087,-4.3213,-4.324,-4.3301,-4.3449,-4.3516,-4.3476,-4.3745,-4.3663,-4.3676,-4.3682,-4.3763,-4.3791,-4.3815,-4.3493,-4.3491,-4.349,0,0,-4.2901,-4.2943,-4.3056,-4.31,-4.3164,-4.3175,-4.3202,-4.3258,-4.3273,-4.3401,-4.3364,-4.3444,-4.3588,-4.3632,-4.3674,-4.3877,-4.3843,-4.3903,-4.4007,-4.409,-4.4113,-4.4133,-4.4202,-4.4228,-4.3919,-4.3919,-4.3919,0,-4.2987,-4.3122,-4.3118,-4.322,-4.3268,-4.3228,-4.3341,-4.3384,-4.3471,-4.3504,-4.3459,-4.3638,-4.3677,-4.3833,-4.3883,-4.3919,-4.3949,-4.3894,-4.411,-4.413,-4.4149,-4.4215,-4.4241,-4.3926,-4.3925,-4.3924,-4.3924,0,-4.3223,-4.3318,-4.3402,-4.3486,-4.3545,-4.3653,-4.3664,-4.3723,-4.3711,-4.3727,-4.3857,-4.3903,-4.3989,-4.4027,-4.4016,-4.4182,-4.4155,-4.4111,-4.4028,-4.4183,-4.4245,-4.427,-4.3935,-4.3933,-4.3931,-4.3929,0,0,-4.346,-4.3542,-4.3572,-4.361,-4.3678,-4.3751,-4.3857,-4.3942,-4.3992,-4.4054,-4.4141,-4.4265,-4.4224,-4.4272,-4.4266,-4.434,-4.4494,-4.4286,-4.4287,-4.432,-4.4676,-4.4706,-4.4736,-4.4474,-4.4479,-4.4483,-4.467,0,-4.3646,-4.3831,-4.383,-4.4001,-4.4087,-4.4051,-4.4143,-4.4195,-4.4214,-4.4289,-4.4309,-4.4395,-4.4337,-4.4365,-4.4437,-4.446,-4.4565,-4.4447,-4.4552,-4.4556,-4.4534,-4.4768,-4.48,-4.4975,-4.4695,-4.4699,-4.4702,0,-4.3886,-4.3956,-4.4135,-4.419,-4.4226,-4.4309,-4.4386,-4.446,-4.4518,-4.4526,-4.458,-4.4563,-4.467,-4.4588,-4.4734,-4.4654,-4.4698,-4.4716,-4.4723,-4.4729,-4.4635,-4.4777,-4.5031,-4.5056,-4.474,-4.4737,-4.4734,0,-4.4036,-4.4175,-4.43,-4.4334,-4.4402,-4.4461,-4.4492,-4.4545,-4.4596,-4.4665,-4.4697,-4.4777,-4.482,-4.4882,-4.4887,-4.4827,-4.5034,-4.4953,-4.5042,-4.5042,-4.5083,-4.508,-4.5343,-4.5119,-4.5118,-4.5118,-4.5117,0,-4.4241,-4.4351,-4.4368,-4.4444,-4.4567,-4.4566,-4.4687,-4.4713,-4.4761,-4.4841,-4.4816,-4.4892,-4.4895,-4.4973,-4.4978,-4.5097,-4.5118,-4.5126,-4.5125,-4.5126,-4.5124,-4.5151,-4.5137,-4.5125,-4.5123,-4.5122,-4.5121,0,-4.4427,-4.4444,-4.4576,-4.4631,-4.4648,-4.4735,-4.4781,-4.4854,-4.4871,-4.4972,-4.4996,-4.5023,-4.5112,-4.5125,-4.523,-4.5234,-4.5375,-4.5364,-4.5355,-4.5352,-4.5439,-4.5429,-4.5726,-4.5763,-4.5518,-4.5521,-4.5523,0,-4.4554,-4.4638,-4.4703,-4.4755,-4.4789,-4.4874,-4.4925,-4.4929,-4.4984,-4.5057,-4.512,-4.5208,-4.5277,-4.5423,-4.5451,-4.5531,-4.5519,-4.5618,-4.5531,-4.5528,-4.5516,-4.5509,-4.5516,-4.5633,-4.5636,-4.5638,-4.564,0,-4.4778,-4.4782,-4.4858,-4.4938,-4.5,-4.5063,-4.5122,-4.5166,-4.5177,-4.524,-4.5332,-4.5387,-4.5494,-4.5581,-4.5661,-4.5692,-4.5667,-4.5668,-4.5692,-4.5691,-4.5681,-4.5684,-4.5397,-4.5659,-4.5657,-4.5656,-4.5655,-4.5654,-4.4936,-4.5008,-4.5064,-4.5149,-4.5195,-4.5251,-4.5321,-4.5347,-4.5424,-4.5511,-4.551,-4.561,-4.5666,-4.5771,-4.5808,-4.5886,-4.5853,-4.5889,-4.5898,-4.5905,-4.5912,-4.5672,-4.5901,-4.5901,-4.59,-4.59,-4.5899,0,-4.5154,-4.5189,-4.5268,-4.5351,-4.5418,-4.5392,-4.5456,-4.5513,-4.5602,-4.5657,-4.5727,-4.5832,-4.5916,-4.5952,-4.6034,-4.609,-4.608,-4.6111,-4.6104,-4.6112,-4.5938,-4.5907,-4.6117,-4.6117,-4.6117,-4.6117,-4.6117,-4.6117,-4.5275,-4.5395,-4.5406,-4.5548,-4.5582,-4.568,-4.5719,-4.577,-4.5813,-4.5932,-4.6002,-4.6025,-4.6072,-4.6158,-4.6234,-4.6242,-4.6272,-4.6307,-4.631,-4.6146,-4.6124,-4.6103,-4.6074,-4.6315,-4.6315,-4.6476,-4.6478,-4.6479]},{"header":{"parameterUnit":"m.s-1","parameterCategory":1,"la1":30.2991,"la2":30.254,"lo1":-89.0895,"lo2":-89.0444,"dy":0.0017,"dx":0.0017,"nx":28,"ny":28,"refTime":"2023-09-20T03:00:00:Z","depth":0,"parameterNumber":3,"parameterNumberName":"V-component_of_WINDS"},"data":[0,0,0,0,0,0,0,0,0,0,0,0,0,0,0,0,0,0,0,0,0,0,0,0,0,0,0,0,0,0,0,0,0,0,0,0,0,0,0,0,0,0,0,0,0,0,0,0,0,0,0,0,0,0,0,0,0,0,-1.0928,-1.0927,0,-1.089,-1.0889,-1.0889,-1.0915,-1.0917,-1.0918,-1.0919,-1.0872,-1.087,-1.0867,0,0,0,0,0,0,0,0,0,0,0,0,0,-1.1014,-1.1013,-1.0928,-1.0927,-1.0927,-1.089,-1.0889,-1.0889,-1.0915,-1.0917,-1.0918,-1.092,-1.0873,-1.087,-1.0867,0,0,0,0,0,0,0,0,0,0,0,0,0,-1.0976,-1.1012,-1.0928,-1.0936,-1.0936,-1.089,-1.0889,-1.0889,-1.0915,-1.0917,-1.0919,-1.092,-1.0874,-1.087,-1.0867,-1.0808,0,0,-1.0856,-1.0854,0,0,0,0,0,0,0,0,-1.0978,-1.0973,-1.0935,-1.0935,-1.0935,-1.0909,-1.0903,-1.0861,-1.0914,-1.0923,-1.0919,-1.0921,-1.0882,-1.0878,-1.0867,-1.0806,-1.0804,-1.0855,-1.0853,-1.0852,-1.0851,0,0,0,0,0,0,0,-1.0981,-1.0975,-1.0913,-1.0934,-1.0935,-1.0938,-1.0935,-1.0895,-1.0892,-1.0922,-1.0924,-1.092,-1.0883,-1.087,-1.0866,-1.0803,-1.0856,-1.0852,-1.085,-1.0849,-1.069,-1.0688,0,0,0,0,0,0,-1.0984,-1.0977,-1.0914,-1.0911,-1.0962,-1.0935,-1.0932,-1.0916,-1.0893,-1.0892,-1.0918,-1.0921,-1.0875,-1.087,-1.0864,-1.0793,-1.0852,-1.0848,-1.0846,-1.0692,-1.0689,-1.0687,0,0,0,0,0,0,-1.0986,-1.0978,-1.0915,-1.0945,-1.0937,-1.0932,-1.0914,-1.0914,-1.0902,-1.089,-1.0889,-1.0906,-1.0877,-1.0869,-1.0822,-1.0792,-1.0847,-1.0844,-1.0694,-1.0691,-1.0688,-1.065,0,0,0,0,0,0,-1.0988,-1.0979,-1.0959,-1.0944,-1.0935,-1.0876,-1.0912,-1.0912,-1.0896,-1.09,-1.0879,-1.0877,-1.0878,-1.0827,-1.0818,-1.0788,-1.0841,-1.0697,-1.0693,-1.0689,-1.0654,-1.0646,-1.0639,0,0,0,0,0,-1.0991,-1.0948,-1.0958,-1.095,-1.0911,-1.0874,-1.0869,-1.0873,-1.0894,-1.0872,-1.0864,-1.0878,-1.0797,-1.0822,-1.0812,-1.078,-1.0699,-1.0694,-1.0689,-1.0657,-1.0648,-1.064,0,0,0,0,0,0,-1.0957,-1.0947,-1.0957,-1.0908,-1.0892,-1.0879,-1.0852,-1.0863,-1.0839,-1.0842,-1.0846,-1.0841,-1.0791,-1.0781,-1.0809,-1.0721,-1.075,-1.0744,-1.0729,-1.072,-1.0713,-1.0716,-1.0838,0,0,0,0,0,-1.0944,-1.0919,-1.091,-1.0868,-1.0859,-1.0857,-1.0841,-1.0846,-1.0828,-1.0821,-1.081,-1.079,-1.0759,-1.0739,-1.0711,-1.0653,-1.0647,-1.0626,-1.0618,-1.0612,-1.0606,-1.0572,-1.0561,-1.0671,-1.0671,-1.0672,0,0,-1.0917,-1.0908,-1.0891,-1.0861,-1.0849,-1.0819,-1.0851,-1.0819,-1.0796,-1.0815,-1.077,-1.0761,-1.0738,-1.0685,-1.066,-1.0675,-1.0574,-1.0606,-1.0602,-1.0598,-1.0566,-1.0555,-1.0546,-1.0668,-1.0669,-1.0669,0,0,-1.0852,-1.0843,-1.0807,-1.0794,-1.0777,-1.0775,-1.0766,-1.0751,-1.0746,-1.0702,-1.0715,-1.0686,-1.0635,-1.0618,-1.0603,-1.0529,-1.0539,-1.052,-1.048,-1.0447,-1.0438,-1.0431,-1.0402,-1.0393,-1.0513,-1.0513,-1.0513,0,-1.0819,-1.0778,-1.0786,-1.0752,-1.0737,-1.0756,-1.0717,-1.0703,-1.0676,-1.0664,-1.0681,-1.0616,-1.0602,-1.0544,-1.0526,-1.0513,-1.0501,-1.0522,-1.044,-1.0432,-1.0425,-1.0398,-1.0387,-1.0511,-1.0511,-1.0511,-1.0512,0,-1.0737,-1.0708,-1.068,-1.0656,-1.0638,-1.0601,-1.0601,-1.0581,-1.0586,-1.0582,-1.0534,-1.0519,-1.0487,-1.0473,-1.0478,-1.0414,-1.0424,-1.044,-1.047,-1.0412,-1.0386,-1.0376,-1.0507,-1.0508,-1.0509,-1.051,0,0,-1.0649,-1.063,-1.0619,-1.0608,-1.0589,-1.0565,-1.0528,-1.05,-1.0481,-1.0461,-1.0428,-1.0384,-1.0399,-1.0381,-1.0383,-1.0354,-1.0294,-1.0374,-1.0373,-1.0358,-1.0221,-1.0208,-1.0196,-1.0302,-1.03,-1.0298,-1.0222,0,-1.0582,-1.0521,-1.0527,-1.0467,-1.0439,-1.0455,-1.0423,-1.0406,-1.04,-1.0373,-1.0366,-1.0334,-1.0357,-1.0346,-1.0318,-1.0308,-1.0267,-1.0313,-1.0268,-1.0266,-1.0272,-1.0183,-1.0169,-1.0099,-1.0212,-1.0211,-1.021,0,-1.0495,-1.0475,-1.0413,-1.0398,-1.0386,-1.0357,-1.033,-1.0305,-1.0284,-1.0282,-1.0262,-1.0269,-1.0228,-1.0259,-1.0201,-1.0233,-1.0214,-1.0206,-1.0204,-1.0198,-1.0234,-1.0173,-1.0076,-1.0065,-1.0194,-1.0196,-1.0197,0,-1.0435,-1.0392,-1.0349,-1.0339,-1.032,-1.0299,-1.0289,-1.0272,-1.0253,-1.0228,-1.0216,-1.0186,-1.0168,-1.0143,-1.014,-1.0164,-1.0081,-1.0113,-1.0075,-1.0075,-1.0056,-1.0057,-0.9953,-1.0046,-1.0047,-1.0047,-1.0047,0,-1.0359,-1.032,-1.0322,-1.0295,-1.0252,-1.0257,-1.0212,-1.0204,-1.0188,-1.0158,-1.0169,-1.014,-1.0139,-1.0107,-1.0104,-1.0055,-1.0048,-1.0042,-1.0042,-1.0041,-1.0041,-1.0028,-1.0032,-1.0044,-1.0045,-1.0045,-1.0046,0,-1.0284,-1.0284,-1.0238,-1.0225,-1.022,-1.0188,-1.0174,-1.0147,-1.0143,-1.0104,-1.0095,-1.0087,-1.0051,-1.0046,-1.0003,-1.0001,-0.9941,-0.9946,-0.9949,-0.9949,-0.9911,-0.9914,-0.9793,-0.9777,-0.9883,-0.9882,-0.9881,0,-1.0235,-1.0205,-1.0189,-1.0171,-1.0161,-1.0131,-1.0113,-1.0116,-1.0096,-1.007,-1.0045,-1.0011,-0.9984,-0.9924,-0.9912,-0.9879,-0.9882,-0.9842,-0.9877,-0.9876,-0.9879,-0.988,-0.9876,-0.9835,-0.9834,-0.9833,-0.9832,0,-1.0146,-1.0147,-1.0123,-1.0097,-1.0075,-1.0054,-1.0035,-1.0018,-1.0018,-0.9994,-0.9959,-0.9938,-0.9895,-0.9859,-0.9826,-0.9812,-0.982,-0.9821,-0.981,-0.9808,-0.981,-0.9807,-0.9929,-0.9824,-0.9825,-0.9825,-0.9826,-0.9826,-1.0081,-1.0056,-1.004,-1.0011,-0.9997,-0.9978,-0.9952,-0.9944,-0.9916,-0.9883,-0.9885,-0.9845,-0.9823,-0.978,-0.9764,-0.973,-0.9743,-0.9728,-0.9723,-0.9719,-0.9715,-0.9817,-0.9724,-0.9724,-0.9724,-0.9725,-0.9725,0,-0.9992,-0.9983,-0.9956,-0.9929,-0.9906,-0.9919,-0.9897,-0.9875,-0.9841,-0.9821,-0.9795,-0.9752,-0.9717,-0.9703,-0.9668,-0.9643,-0.9646,-0.9634,-0.9635,-0.9631,-0.9706,-0.9719,-0.9632,-0.9632,-0.9632,-0.9632,-0.9632,-0.9632,-0.9943,-0.99,-0.9899,-0.9847,-0.9837,-0.9801,-0.9787,-0.9768,-0.9752,-0.9706,-0.9678,-0.967,-0.965,-0.9614,-0.9581,-0.9577,-0.9563,-0.9548,-0.9546,-0.9616,-0.9626,-0.9635,-0.9646,-0.9546,-0.9545,-0.9473,-0.9472,-0.9472]}]]